Flag for Canada Weather past 2 weeks in Caledon, Ontario, Canada

Now
46 °F

Overcast.


Feels Like: 46 °F
Forecast: 45 / 59 °F
Wind: 2 mph from South

Location: Borden

Current Time: Oct 24, 2014 at 11:13:17 PM

Latest Report: Oct 24, 2014 at 10:00 PM


Visibility: 9 mi

Pressure: 29.94 "Hg

Humidity: 93%

Dew point: 45 °F

Location of CaledonLocation

Historic Weather in Caledon — Graph

°F

Caledon temperature yesterday

Maximum temperature yesterday: 57 °F (at 2:00 PM)
Minimum temperature yesterday: 28 °F (at 7:01 AM)
Average temperature yesterday: 40 °F

Past Weeks' High & Low Weather Summary

 TemperatureHumidityPressure
High73 °F (Oct 14, 1:00 PM)100% (Oct 10, 10:00 PM)30.32 "Hg (Oct 10, 10:00 PM)
Low25 °F (Oct 24, 6:00 AM)44% (Oct 12, 2:00 PM)29.43 "Hg (Oct 17, 5:03 PM)
Average47 °F90%29.95 "Hg
* Reported Oct 9 10:00 PM — Oct 24 10:00 PM, Caledon, Weather by CustomWeather, © 2014

Note: Actual official high and low records may vary slightly from our data, if they occured in-between our weather recording intervals... More about our weather records

Advertising

Caledon weather history for previous 24 hours

 ConditionsComfort  
Time TempWeatherWind HumidityBarometerVisibility
10:00 PM
Oct 24
46 °FOvercast.2 mph93%29.94 "Hg9 mi
9:00 PM45 °FOvercast.2 mph93%29.96 "Hg9 mi
8:00 PM41 °FPassing clouds.No wind100%29.97 "Hg9 mi
7:00 PM45 °FPassing clouds.No wind93%29.96 "Hg9 mi
6:00 PM52 °FPassing clouds.5 mph72%29.96 "Hg9 mi
5:00 PM55 °FScattered clouds.7 mph67%29.95 "Hg9 mi
4:00 PM57 °FPassing clouds.8 mph63%29.95 "Hg9 mi
3:00 PM57 °FScattered clouds.5 mph55%29.96 "Hg9 mi
2:00 PM55 °FPassing clouds.6 mph59%29.99 "Hg9 mi
1:00 PM54 °FSunny.7 mph67%30.01 "Hg9 mi
12:00 PM50 °FSunny.3 mph76%30.03 "Hg9 mi
11:00 AM46 °FSunny.2 mph87%30.05 "Hg9 mi
10:00 AM39 °FOvercast.2 mph100%30.07 "Hg7 mi
9:00 AM32 °FOvercast.2 mph100%30.07 "Hg9 mi
8:00 AM30 °FOvercast.2 mph100%30.06 "Hg9 mi
7:00 AM25 °FPassing clouds.No wind100%30.08 "Hg9 mi
6:55 AM27 °FPassing clouds.No wind100%30.05 "Hg9 mi
6:00 AM25 °FClear.No wind100%30.07 "Hg9 mi
5:01 AM27 °FClear.2 mph93%30.04 "Hg1 mi
4:01 AM27 °FClear.2 mph100%30.04 "Hg9 mi
3:00 AM28 °FClear.No wind100%30.06 "Hg4 mi
2:00 AM30 °FClear.3 mph100%30.06 "Hg9 mi
1:00 AM28 °FClear.No wind100%30.07 "Hg1 mi
12:00 AM30 °FClear.No wind100%30.08 "Hg9 mi
11:59 PM
Oct 23
30 °FClear.No wind100%30.06 "Hg9 mi
11:00 PM32 °FDense fog.2 mph100%30.08 "Hg1 mi
Weather by CustomWeather, © 2014

See weather overviewHow to use our weather pages